Delavan, Wisconsin, United States (53115)
Lat: 42.63N, Lon: 88.64W
Wx Zone: WIZ070
Local Info
Past Weather Observations for Today

NOTE: This archive is for the closest National Weather Service station to Delavan. Information may differ from the station used for current weather conditions.

Click here for Long-term Archive

Time Weather Temperature Dewpoint Humidity Pressure Winds Precip Visibility
07:55
Partly Cloudy
63°F / 17°C 61°F / 16°C 94% 29.86 in
(1011 mb)
S 3.5 mph
(S 6 kph)
- 10SM
07:35
Overcast
61°F / 16°C 59°F / 15°C 94% 29.86 in
(1011 mb)
Calm - 7SM
07:15
Overcast
59°F / 15°C 57°F / 14°C 94% 29.86 in
(1011 mb)
Calm - 7SM
06:55
Partly Cloudy
Fog And Mist
59°F / 15°C 57°F / 14°C 94% 29.86 in
(1011 mb)
Calm - 5SM
06:35
Partly Cloudy
Fog And Mist
59°F / 15°C 57°F / 14°C 94% 29.86 in
(1011 mb)
Calm - 5SM
06:15
Partly Cloudy
59°F / 15°C 57°F / 14°C 94% 29.86 in
(1011 mb)
SSE 3.5 mph
(SSE 6 kph)
- 7SM
05:55
Mostly Cloudy
59°F / 15°C 57°F / 14°C 94% 29.86 in
(1011 mb)
Calm - 7SM
05:35
Overcast
59°F / 15°C 57°F / 14°C 94% 29.86 in
(1011 mb)
Calm - 10SM
05:15
Overcast
57°F / 14°C 57°F / 14°C 100% 29.86 in
(1011 mb)
Calm - 7SM
04:55
Overcast
57°F / 14°C 57°F / 14°C 100% 29.86 in
(1011 mb)
Calm - 10SM
04:35
Mostly Cloudy
57°F / 14°C 55°F / 13°C 94% 29.86 in
(1011 mb)
Calm - 10SM
04:15
Mostly Cloudy
57°F / 14°C 55°F / 13°C 94% 29.86 in
(1011 mb)
Calm - 10SM
03:55
Mostly Cloudy
57°F / 14°C 55°F / 13°C 94% 29.83 in
(1010 mb)
Calm - 10SM
03:35
Mostly Cloudy
57°F / 14°C 55°F / 13°C 94% 29.86 in
(1011 mb)
Calm - 10SM
03:15
Overcast
57°F / 14°C 55°F / 13°C 94% 29.86 in
(1011 mb)
Calm - 10SM
02:55
Mostly Cloudy
57°F / 14°C 57°F / 14°C 100% 29.86 in
(1011 mb)
Calm - 10SM
02:35
Partly Cloudy
57°F / 14°C 55°F / 13°C 94% 29.86 in
(1011 mb)
Calm - 10SM
02:15
Mostly Cloudy
57°F / 14°C 55°F / 13°C 94% 29.86 in
(1011 mb)
SSE 3.5 mph
(SSE 6 kph)
- 10SM
01:55
Mostly Cloudy
59°F / 15°C 55°F / 13°C 88% 29.86 in
(1011 mb)
SSE 4.6 mph
(SSE 7 kph)
- 10SM
01:35
Mostly Cloudy
57°F / 14°C 55°F / 13°C 94% 29.89 in
(1012 mb)
SSE 3.5 mph
(SSE 6 kph)
- 10SM
01:15
Overcast
Light Rain
59°F / 15°C 55°F / 13°C 88% 29.89 in
(1012 mb)
SSE 3.5 mph
(SSE 6 kph)
- 7SM
00:55
Overcast
61°F / 16°C 54°F / 12°C 77% 29.89 in
(1012 mb)
SSE 3.5 mph
(SSE 6 kph)
- 10SM
00:35
Overcast
61°F / 16°C 54°F / 12°C 77% 29.89 in
(1012 mb)
SSE 5.8 mph
(SSE 9 kph)
- 10SM
00:15
Overcast
61°F / 16°C 54°F / 12°C 77% 29.89 in
(1012 mb)
SSE 8.1 mph
(SSE 13 kph)
- 10SM
Time Weather Temperature Dewpoint Humidity Pressure Winds Precip Visibility


Weather for websites

WeatherForYou.com, LLC is not responsible for any damages or problems caused by this service. Current weather conditions are obtained from the closest station including government and personal stations which may have varying degrees of accuracy. Weather forecasts are derived from the NOAA NDFD. Like all things, this site belongs to Jesus Christ... He just trusts me to maintain it. If you have any questions or comments email webmaster@weatherforyou.com

Copyright © 2014, WeatherForYou.com LLC. All rights reserved.